This demonstration page uses our WeatherBlox Daily Observations layout. Learn more.

Left ArrowRight Arrow

39.29038, -76.61219

Hourly Observations for November 1, 2016

Temp ( °F °C ) Dew Point ( °F °C ) Humidity (%) Winds ( mph kmh ) Pressure ( in mb ) Visibility ( mi km ) Precip ( " mm )
12:54 am 00:54 undefined 49 9.4 36 2.2 61 61 undefined N/A 30.29 1026 N/A 0.00 0.00
1:54 am 01:54 undefined 48 8.9 35 1.7 61 61 undefined N/A 30.30 1026 N/A 0.00 0.00
2:54 am 02:54 undefined 47 8.3 35 1.7 63 63 undefined N/A 30.32 1027 N/A 0.00 0.00
3:54 am 03:54 undefined 46 7.8 36 2.2 68 68 undefined N/A 30.32 1027 N/A 0.00 0.00
4:54 am 04:54 undefined 46 7.8 37 2.8 71 71 undefined N/A 30.32 1027 N/A 0.00 0.00
5:54 am 05:54 undefined 46 7.8 38 3.3 73 73 undefined N/A 30.32 1027 N/A 0.00 0.00
6:54 am 06:54 undefined 47 8.3 39 3.9 74 74 undefined N/A 30.32 1027 N/A 0.00 0.00
7:54 am 07:54 undefined 47 8.3 39 3.9 74 74 undefined N/A 30.34 1027 N/A 0.00 0.00
8:54 am 08:54 undefined 48 8.9 40 4.4 74 74 undefined N/A 30.36 1028 N/A 0.00 0.00
9:54 am 09:54 undefined 49 9.4 41 5 74 74 undefined N/A 30.37 1028 N/A 0.00 0.00
10:54 am 10:54 undefined 52 11.1 42 5.6 69 69 undefined N/A 30.35 1028 N/A 0.00 0.00
11:54 am 11:54 undefined 56 13.3 44 6.7 65 65 undefined N/A 30.35 1028 N/A 0.00 0.00
12:54 pm 12:54 undefined 58 14.4 44 6.7 60 60 undefined N/A 30.34 1027 N/A 0.00 0.00
1:54 pm 13:54 undefined 57 13.9 45 7.2 64 64 undefined N/A 30.32 1027 N/A 0.00 0.00
2:54 pm 14:54 undefined 58 14.4 45 7.2 62 62 undefined N/A 30.30 1026 N/A 0.00 0.00
3:54 pm 15:54 undefined 59 15 47 8.3 64 64 undefined N/A 30.30 1026 N/A 0.00 0.00
4:54 pm 16:54 undefined 59 15 47 8.3 64 64 undefined N/A 30.29 1026 N/A 0.00 0.00
5:54 pm 17:54 undefined 58 14.4 47 8.3 67 67 undefined N/A 30.30 1026 N/A 0.00 0.00
6:54 pm 18:54 undefined 58 14.4 47 8.3 67 67 undefined N/A 30.31 1026 N/A 0.00 0.00
7:54 pm 19:54 undefined 58 14.4 47 8.3 67 67 undefined N/A 30.32 1027 N/A 0.00 0.00
8:54 pm 20:54 undefined 57 13.9 47 8.3 69 69 undefined N/A 30.31 1026 N/A 0.00 0.00
9:54 pm 21:54 undefined 57 13.9 48 8.9 72 72 undefined N/A 30.29 1026 N/A 0.00 0.00
10:54 pm 22:54 undefined 56 13.3 48 8.9 75 75 undefined N/A 30.31 1026 N/A 0.00 0.00
11:54 pm 23:54 undefined 55 12.8 48 8.9 77 77 undefined N/A 30.30 1026 N/A 0.00 0.00

Powered by AerisWeather